This is the latest recevied weather packets stored in our database for station/object WD7CGF. If no packets are shown the sender has not sent any weather packets the latest 10 day(s).
| Time | Temp. | Humidity | Pressure | Rain* | Wind** | Luminosity | Snow |
|---|---|---|---|---|---|---|---|
| 1787576924 | 8.33° C | 88% | 1019 hPa | 0 mm | - | - | - |
| 1787576316 | 8.89° C | 89% | 1018.9 hPa | 0 mm | - | - | - |
| 1787575729 | 8.89° C | 89% | 1018.9 hPa | 0 mm | - | - | - |
| 1787575121 | 9.44° C | 89% | 1018.9 hPa | 0 mm | - | - | - |
| 1787574513 | 9.44° C | 88% | 1018.8 hPa | 0 mm | - | - | - |
| 1787573925 | 9.44° C | 88% | 1018.8 hPa | 0 mm | - | - | - |
| 1787573319 | 9.44° C | 88% | 1018.4 hPa | 0 mm | - | - | - |
| 1787572730 | 10° C | 87% | 1018.3 hPa | 0 mm | - | - | - |
| 1787572127 | 9.44° C | 87% | 1018.3 hPa | 0 mm | - | - | - |
| 1787571520 | 10° C | 87% | 1018.3 hPa | 0 mm | - | - | - |
| 1787570914 | 10° C | 86% | 1018.3 hPa | 0 mm | - | - | - |
| 1787570327 | 10° C | 85% | 1018.3 hPa | 0 mm | - | - | - |
| 1787569719 | 10.56° C | 85% | 1018 hPa | 0 mm | - | - | - |
| 1787569113 | 10.56° C | 85% | 1018 hPa | 0 mm | - | - | - |
| 1787568526 | 11.11° C | 85% | 1018 hPa | 0 mm | - | - | - |
| 1787567923 | 11.11° C | 84% | 1017.8 hPa | 0 mm | - | - | - |
| 1787567319 | 11.67° C | 83% | 1017.6 hPa | 0 mm | - | - | - |
| 1787566711 | 11.67° C | 83% | 1017.6 hPa | 0 mm | - | - | - |
| 1787566124 | 12.22° C | 81% | 1017.5 hPa | 0 mm | - | - | - |
| 1787565517 | 12.22° C | 80% | 1018.3 hPa | 0 mm | - | - | - |
| 1787564928 | 12.78° C | 79% | 1018.3 hPa | 0 mm | - | - | - |
| 1787564322 | 13.33° C | 78% | 1018.2 hPa | 0 mm | - | - | - |
| 1787563713 | 13.89° C | 79% | 1017.9 hPa | 0 mm | - | - | - |
| 1787563109 | 13.89° C | 79% | 1017.9 hPa | 0 mm | - | - | - |
| 1787562525 | 14.44° C | 77% | 1018.1 hPa | 0 mm | - | - | - |
* Rain latest hour (hover to see other rain measurements)
** Current wind speed in m/s (hover to see current wind gust speed)